Location: Dessau
(51.7984°N, 12.2168°E)
Time: 22:56:57
(UTC+02:00)

ISS - Visible Passes

Search period start: 25 September 2020 00:00
Search period end: 05 October 2020 00:00
Orbit: 419 x 420 km, 51.6° (Epoch: 26 September)

Date Brightness Start Highest point End Pass type
(mag) Time Alt. Az. Time Alt. Az. Time Alt. Az.
25 Sep -3.9 20:58:27 10° W 21:01:51 90° SSW 21:02:08 73° E visible
26 Sep -3.8 20:11:04 10° W 20:14:27 89° SSW 20:16:31 22° E visible
26 Sep -1.6 21:47:54 10° W 21:49:28 25° W 21:49:28 25° W visible
27 Sep -3.8 21:00:29 10° W 21:03:50 76° SSW 21:03:50 76° SSW visible
28 Sep -3.8 20:13:04 10° W 20:16:28 85° S 20:18:11 27° E visible
28 Sep -1.2 21:49:58 10° W 21:51:09 19° W 21:51:09 19° W visible
29 Sep -3.7 19:25:40 10° W 19:29:03 90° SSW 19:32:26 10° E visible
29 Sep -3.1 21:02:30 10° W 21:05:30 48° SW 21:05:30 48° SW visible
30 Sep -3.6 20:15:03 10° W 20:18:24 63° SSW 20:19:53 29° SE visible
30 Sep -0.8 21:52:15 10° W 21:52:51 13° WSW 21:52:51 13° WSW visible
01 Oct -3.7 19:27:36 10° W 19:30:59 76° SSW 19:34:17 10° ESE visible
01 Oct -2.1 21:04:35 10° W 21:07:15 27° SW 21:07:15 27° SW visible
02 Oct -2.7 20:17:01 10° W 20:20:11 37° SSW 20:21:42 23° SSE visible
03 Oct -3.0 19:29:31 10° W 19:32:48 49° SSW 19:36:05 10° SE visible
03 Oct -1.2 21:07:12 10° WSW 21:09:02 14° SW 21:09:10 14° SW visible
04 Oct -1.5 20:19:14 10° W 20:21:46 20° SW 20:23:45 13° S visible
